{"data":{"norad_id":62440,"intl_designator":"2024-251J","name":"STARLINK-32689","alt_names":[],"object_type":"PAYLOAD","status":"ACTIVE","operator":null,"country":"US","launch_date":"2024-12-29","launch_site_code":"AFWTR","launch_vehicle":null,"mission":null,"orbit_class":"UNKNOWN","rcs_meters":null,"size_class":null,"mass_kg":null,"dimensions":null,"purposes":["comms"],"wikipedia_slug":null,"has_3d_model":false,"image_url":null,"decayed_at":null,"tle_current":{"epoch":"2026-09-21T20:23:00.981888Z","epoch_age_seconds":57992,"freshness":"FRESH","line1":"1 62440U 24251J   26264.84931692 -.00006021  00000+0 -16732-3 0  9994","line2":"2 62440  53.1584 141.1610 0001095  81.1600 278.9526 15.34376933 98021","mean_motion":15.34376933,"eccentricity":0.0001095,"inclination_deg":53.1584,"raan_deg":141.161,"arg_perigee_deg":81.16,"mean_anomaly_deg":278.9526,"bstar":-0.00016732,"rev_number":9802,"period_min":93.849168938204,"perigee_km":462.02272153745,"apogee_km":463.52088056488,"semimajor_km":6840.9088010512,"source":"CELESTRAK","updated_at":"2026-09-22T09:00:49.581539Z"}}}